sat.trackr.live / text

‹ back to catalog

ONEWEB-0602

NORAD 54666 · 2022-166AA

PAYLOAD ACTIVE UNKNOWN

§ Identity

Operator
Country
UK
Launch date
2022-12-08
Launch site
AFETR
Launch vehicle
Mass (kg)
RCS (m²)

Purposes: comms

External: N2YO · Heavens-Above · Gunter

§ Orbital elements

Epoch: 2026-09-20T03:35:20.999040Z

Period
108.94 min
Inclination
87.9277°
Eccentricity
0.0002232
Mean motion
13.21823737 rev/d
Perigee alt
1,176.1 km
Apogee alt
1,179.4 km
Semi-major
7,555.9 km
B*
1.6995e-4
RAAN
225.0957°
Arg perigee
75.7619°
Mean anomaly
284.3763°
Rev number
18,409

§ Raw data

ONEWEB-06021 54666U 22166AA  26263.14954860  .00000083  00000+0  16995-3 0  99932 54666  87.9277 225.0957 0002232  75.7619 284.3763 13.21823737184095

JSON: /api/v1/satellites/54666 · /tle

For live sub-satellite position, see the globe view (requires WebGL).

§ Visibility from observer

Set your observer location to see the next 7 days of passes ≥ 10°. The values pass through the URL so the page stays shareable.

No JS? Fill the form by hand. The geolocation button needs JavaScript.